Flag for U.S.A. Weather past 2 weeks in St. Croix Falls, Wisconsin, U.S.A.

Now
33 °F

Sunny.


Feels Like: 33 °F
Forecast: 30 / 65 °F
Wind: No wind

Location: L O Simenstad Municipal Airport

Current Time: Apr 27, 2015 at 7:43:26 AM

Latest Report: Apr 27, 2015 at 7:15 AM


Visibility: 10 mi

Pressure: 30.24 "Hg

Humidity: 88%

Dew point: 30 °F

Location of St. Croix FallsLocation

Historic Weather in St. Croix Falls — Graph

°F

St. Croix Falls temperature yesterday

Maximum temperature yesterday: 63 °F (at 4:55 PM)
Minimum temperature yesterday: 29 °F (at 6:35 AM)
Average temperature yesterday: 47 °F

Past Weeks' High & Low Weather Summary

 TemperatureHumidityPressure
High74 °F (Apr 12, 4:15 PM)100% (Apr 12, 10:35 PM)30.30 "Hg (Apr 12, 10:35 PM)
Low21 °F (Apr 23, 5:55 AM)15% (Apr 15, 6:15 PM)29.49 "Hg (Apr 20, 5:15 AM)
Average49 °F53%29.95 "Hg
* Reported Apr 12 6:15 AM — Apr 27 6:15 AM, St. Croix Falls, Weather by CustomWeather, © 2015

Note: Actual official high and low records may vary slightly from our data, if they occured in-between our weather recording intervals... More about our weather records

Advertising

St. Croix Falls weather history for previous 24 hours

 ConditionsComfort  
Time TempWeatherWind HumidityBarometerVisibility
6:15 AM
Mon, Apr 27
30 °FClear.No wind83%30.24 "Hg10 mi
5:55 AM31 °FClear.No wind85%30.24 "Hg10 mi
5:35 AM31 °FClear.No wind83%30.23 "Hg10 mi
5:15 AM30 °FClear.No wind91%30.22 "Hg10 mi
4:55 AM32 °FClear.No wind83%30.23 "Hg10 mi
4:15 AM31 °FClear.No wind85%30.23 "Hg10 mi
3:55 AM32 °FClear.No wind82%30.23 "Hg10 mi
3:35 AM32 °FClear.No wind85%30.22 "Hg10 mi
3:15 AM33 °FClear.No wind79%30.21 "Hg10 mi
2:55 AM34 °FClear.No wind79%30.20 "Hg10 mi
2:15 AM35 °FClear.No wind76%30.20 "Hg10 mi
1:55 AM36 °FClear.No wind75%30.20 "Hg10 mi
1:35 AM36 °FClear.No wind76%30.20 "Hg10 mi
1:15 AM37 °FClear.No wind69%30.20 "Hg10 mi
12:55 AM37 °FClear.No wind71%30.20 "Hg10 mi
12:35 AM37 °FClear.No wind70%30.19 "Hg10 mi
12:15 AM39 °FClear.No wind63%30.19 "Hg10 mi
11:55 PM
Sun, Apr 26
40 °FClear.No wind60%30.19 "Hg10 mi
11:35 PM41 °FClear.No wind56%30.18 "Hg10 mi
11:15 PM46 °FClear.No wind44%30.18 "Hg10 mi
10:35 PM48 °FClear.3 mph40%30.17 "Hg10 mi
10:15 PM49 °FClear.5 mph38%30.17 "Hg10 mi
9:55 PM49 °FClear.6 mph40%30.16 "Hg10 mi
9:35 PM50 °FClear.6 mph38%30.16 "Hg10 mi
9:15 PM51 °FClear.5 mph38%30.15 "Hg10 mi
8:55 PM52 °FSunny.8 mph37%30.15 "Hg10 mi
8:35 PM54 °FSunny.7 mph30%30.14 "Hg10 mi
8:15 PM55 °FSunny.7 mph29%30.13 "Hg10 mi
7:55 PM56 °FSunny.7 mph28%30.12 "Hg10 mi
7:35 PM58 °FSunny.10 mph28%30.12 "Hg10 mi
7:15 PM60 °FSunny.9 mph25%30.11 "Hg10 mi
6:55 PM60 °FSunny.10 mph24%30.11 "Hg10 mi
6:35 PM61 °FSunny.12 mph24%30.11 "Hg10 mi
6:15 PM61 °FSunny.10 mph25%30.11 "Hg10 mi
5:55 PM62 °FSunny.13 mph24%30.11 "Hg10 mi
5:35 PM63 °FSunny.7 mph23%30.11 "Hg10 mi
5:15 PM62 °FSunny.8 mph23%30.11 "Hg10 mi
4:55 PM63 °FSunny.10 mph23%30.11 "Hg10 mi
4:15 PM62 °FSunny.3 mph23%30.11 "Hg10 mi
3:55 PM62 °FSunny.5 mph24%30.11 "Hg10 mi
3:15 PM62 °FSunny.9 mph24%30.12 "Hg5 mi
2:55 PM60 °FSunny.8 mph24%30.13 "Hg10 mi
2:15 PM60 °FSunny.8 mph25%30.13 "Hg10 mi
1:55 PM59 °FSunny.No wind26%30.14 "Hg10 mi
1:35 PM58 °FSunny.8 mph26%30.14 "Hg10 mi
1:15 PM58 °FSunny.No wind23%30.15 "Hg10 mi
12:55 PM56 °FSunny.No wind25%30.15 "Hg10 mi
12:35 PM56 °FSunny.5 mph27%30.16 "Hg10 mi
12:15 PM55 °FSunny.3 mph30%30.16 "Hg10 mi
11:55 AM55 °FSunny.5 mph31%30.16 "Hg10 mi
11:35 AM53 °FSunny.3 mph31%30.16 "Hg10 mi
11:15 AM53 °FSunny.3 mph34%30.16 "Hg10 mi
10:55 AM52 °FSunny.No wind34%30.16 "Hg10 mi
10:35 AM51 °FSunny.No wind34%30.16 "Hg10 mi
10:15 AM51 °FSunny.5 mph34%30.16 "Hg10 mi
9:55 AM50 °FSunny.5 mph36%30.16 "Hg10 mi
9:35 AM48 °FSunny.7 mph39%30.16 "Hg10 mi
9:15 AM46 °FSunny.6 mph44%30.15 "Hg10 mi
8:55 AM44 °FSunny.6 mph47%30.15 "Hg10 mi
8:35 AM43 °FSunny.5 mph50%30.14 "Hg10 mi
8:15 AM40 °FSunny.5 mph54%30.14 "Hg10 mi
7:55 AM38 °FSunny.6 mph59%30.13 "Hg10 mi
7:35 AM36 °FSunny.6 mph64%30.12 "Hg10 mi
7:15 AM33 °FSunny.No wind78%30.12 "Hg10 mi
Weather by CustomWeather, © 2015

See weather overviewHow to use our weather pages